Time,TemperatureF,DewpointF,PressureIn,WindDirection,WindDirectionDegrees,WindSpeedMPH,WindSpeedGustMPH,Humidity,HourlyPrecipIn,Conditions,Clouds,dailyrainin,SoftwareType,DateUTC
2013-01-31 00:03:00,74.0,71.0,30.01,SSW,209,7.0,12.0,89,0.00,,,0.00,,2013-01-31 05:03:00,
2013-01-31 00:11:00,74.0,71.0,30.01,SSW,209,7.0,12.0,89,0.00,,,0.00,,2013-01-31 05:11:00,
2013-01-31 00:22:00,75.0,72.0,30.01,SW,221,4.0,7.0,89,0.00,,,0.00,,2013-01-31 05:22:00,
2013-01-31 00:32:00,75.0,72.0,30.01,SW,221,4.0,7.0,89,0.00,,,0.00,,2013-01-31 05:32:00,
2013-01-31 00:42:00,74.0,71.0,30.00,SSW,204,7.0,11.0,89,0.00,,,0.00,,2013-01-31 05:42:00,
2013-01-31 00:52:00,74.0,71.0,30.00,SSW,204,7.0,11.0,89,0.00,,,0.00,,2013-01-31 05:52:00,
2013-01-31 01:01:00,74.0,71.0,30.00,SSW,204,7.0,11.0,89,0.00,,,0.00,,2013-01-31 06:01:00,
2013-01-31 09:03:00,75.0,72.0,30.04,West,260,6.0,11.0,91,0.00,,,0.00,,2013-01-31 14:03:00,
2013-01-31 09:11:00,75.0,72.0,30.04,West,260,6.0,11.0,91,0.00,,,0.00,,2013-01-31 14:11:00,
2013-01-31 09:22:00,76.0,73.0,30.05,West,271,8.0,10.0,90,0.00,,,0.00,,2013-01-31 14:22:00,
2013-01-31 09:32:00,76.0,73.0,30.06,WNW,289,8.0,15.0,90,0.00,,,0.00,,2013-01-31 14:32:00,
2013-01-31 09:42:00,76.0,73.0,30.06,WNW,289,8.0,15.0,90,0.00,,,0.00,,2013-01-31 14:42:00,
2013-01-31 09:52:00,76.0,73.0,30.06,West,271,9.0,12.0,89,0.00,,,0.00,,2013-01-31 14:52:00,
2013-01-31 10:03:00,77.0,74.0,30.06,West,267,9.0,12.0,89,0.00,,,0.00,,2013-01-31 15:03:00,
2013-01-31 10:12:00,76.0,70.0,30.08,North,360,12.0,21.0,81,0.00,,,0.00,,2013-01-31 15:12:00,
2013-01-31 10:23:00,76.0,70.0,30.08,North,360,12.0,21.0,81,0.00,,,0.00,,2013-01-31 15:23:00,
2013-01-31 10:32:00,74.0,69.0,30.08,North,352,10.0,17.0,85,0.00,,,0.00,,2013-01-31 15:32:00,
2013-01-31 10:42:00,74.0,69.0,30.08,North,352,10.0,17.0,85,0.00,,,0.00,,2013-01-31 15:42:00,
2013-01-31 10:52:00,73.0,69.0,30.09,North,7,10.0,15.0,86,0.00,,,0.00,,2013-01-31 15:52:00,
2013-01-31 11:03:00,74.0,69.0,30.09,NNE,27,10.0,17.0,85,0.00,,,0.00,,2013-01-31 16:03:00,
2013-01-31 11:13:00,74.0,69.0,30.09,NNE,27,10.0,17.0,85,0.00,,,0.00,,2013-01-31 16:13:00,
2013-01-31 11:22:00,74.0,68.0,26.41,NNE,28,8.0,21.0,82,0.00,,,0.00,,2013-01-31 16:22:00,
2013-01-31 11:33:00,73.0,67.0,30.09,NNE,25,10.0,21.0,81,0.00,,,0.00,,2013-01-31 16:33:00,
2013-01-31 11:42:00,73.0,67.0,30.09,NNE,25,10.0,21.0,81,0.00,,,0.00,,2013-01-31 16:42:00,
2013-01-31 11:52:00,73.0,67.0,30.09,NNE,16,14.0,20.0,81,0.00,,,0.00,,2013-01-31 16:52:00,
2013-01-31 12:03:00,72.0,65.0,30.09,NNE,31,14.0,20.0,80,0.00,,,0.00,,2013-01-31 17:03:00,
2013-01-31 12:12:00,72.0,65.0,30.09,NNE,31,14.0,20.0,80,0.00,,,0.00,,2013-01-31 17:12:00,
2013-01-31 12:23:00,72.0,65.0,30.08,NE,34,12.0,20.0,80,0.00,,,0.00,,2013-01-31 17:23:00,
2013-01-31 12:32:00,72.0,65.0,30.07,NE,36,12.0,18.0,79,0.00,,,0.00,,2013-01-31 17:32:00,
2013-01-31 12:43:00,72.0,65.0,30.07,NE,36,12.0,18.0,79,0.00,,,0.00,,2013-01-31 17:43:00,
2013-01-31 12:53:00,72.0,65.0,30.07,ENE,57,9.0,17.0,78,0.00,,,0.00,,2013-01-31 17:53:00,
2013-01-31 13:03:00,72.0,65.0,30.07,NE,46,14.0,19.0,78,0.00,,,0.00,,2013-01-31 18:03:00,
2013-01-31 13:12:00,73.0,65.0,30.06,NE,38,10.0,18.0,77,0.00,,,0.00,,2013-01-31 18:12:00,
2013-01-31 13:22:00,73.0,65.0,30.06,NE,38,10.0,18.0,77,0.00,,,0.00,,2013-01-31 18:22:00,
2013-01-31 13:32:00,73.0,65.0,30.05,NE,44,9.0,15.0,77,0.00,,,0.00,,2013-01-31 18:32:00,
2013-01-31 13:43:00,73.0,65.0,30.05,NE,44,9.0,15.0,77,0.00,,,0.00,,2013-01-31 18:43:00,
2013-01-31 13:52:00,74.0,66.0,30.05,NE,47,5.0,13.0,75,0.00,,,0.00,,2013-01-31 18:52:00,
2013-01-31 14:02:00,74.0,65.0,30.05,ENE,72,7.0,11.0,74,0.00,,,0.00,,2013-01-31 19:02:00,
2013-01-31 14:12:00,74.0,65.0,30.05,ENE,72,7.0,11.0,74,0.00,,,0.00,,2013-01-31 19:12:00,
2013-01-31 14:22:00,74.0,65.0,30.05,NE,48,5.0,12.0,74,0.00,,,0.00,,2013-01-31 19:22:00,
2013-01-31 14:33:00,74.0,66.0,30.04,ENE,65,2.0,9.0,75,0.00,,,0.00,,2013-01-31 19:33:00,
2013-01-31 14:42:00,74.0,66.0,30.04,ENE,65,2.0,9.0,75,0.00,,,0.00,,2013-01-31 19:42:00,
2013-01-31 14:52:00,74.0,66.0,30.05,NNE,20,1.0,11.0,76,0.00,,,0.00,,2013-01-31 19:52:00,
2013-01-31 15:02:00,74.0,66.0,30.05,NNE,28,6.0,11.0,75,0.00,,,0.00,,2013-01-31 20:02:00,
2013-01-31 15:11:00,74.0,66.0,30.05,NNE,28,6.0,11.0,75,0.00,,,0.00,,2013-01-31 20:11:00,
2013-01-31 15:22:00,73.0,64.0,30.05,NE,36,3.0,11.0,74,0.00,,,0.00,,2013-01-31 20:22:00,
2013-01-31 15:32:00,73.0,64.0,30.05,NNE,29,5.0,9.0,74,0.00,,,0.00,,2013-01-31 20:32:00,
2013-01-31 15:42:00,73.0,64.0,30.05,NNE,16,2.0,12.0,74,0.00,,,0.00,,2013-01-31 20:42:00,
2013-01-31 15:52:00,73.0,64.0,30.05,NNE,16,2.0,12.0,74,0.00,,,0.00,,2013-01-31 20:52:00,
2013-01-31 16:02:00,73.0,64.0,30.05,NE,41,5.0,10.0,74,0.00,,,0.00,,2013-01-31 21:02:00,
2013-01-31 16:12:00,73.0,64.0,30.04,NNE,23,5.0,11.0,74,0.00,,,0.00,,2013-01-31 21:12:00,
2013-01-31 16:22:00,73.0,64.0,30.04,NNE,23,5.0,11.0,74,0.00,,,0.00,,2013-01-31 21:22:00,
2013-01-31 16:32:00,72.0,63.0,30.05,NNE,31,3.0,11.0,74,0.00,,,0.00,,2013-01-31 21:32:00,
2013-01-31 16:42:00,72.0,63.0,30.05,NNE,31,3.0,11.0,74,0.00,,,0.00,,2013-01-31 21:42:00,
2013-01-31 16:52:00,72.0,64.0,30.06,NE,44,6.0,13.0,75,0.00,,,0.00,,2013-01-31 21:52:00,
2013-01-31 17:03:00,72.0,64.0,30.06,NNE,33,2.0,11.0,76,0.00,,,0.00,,2013-01-31 22:03:00,
2013-01-31 17:11:00,72.0,64.0,30.06,NE,38,3.0,12.0,75,0.00,,,0.00,,2013-01-31 22:11:00,
2013-01-31 17:22:00,72.0,64.0,30.06,NE,38,3.0,12.0,75,0.00,,,0.00,,2013-01-31 22:22:00,
2013-01-31 17:33:00,73.0,65.0,30.06,NE,45,3.0,12.0,76,0.00,,,0.00,,2013-01-31 22:33:00,
2013-01-31 17:42:00,73.0,65.0,30.06,NE,45,3.0,12.0,76,0.00,,,0.00,,2013-01-31 22:42:00,
2013-01-31 17:52:00,72.0,64.0,30.06,NNE,25,8.0,12.0,75,0.00,,,0.00,,2013-01-31 22:52:00,
2013-01-31 18:03:00,72.0,64.0,30.06,NNE,30,4.0,11.0,75,0.00,,,0.00,,2013-01-31 23:03:00,
2013-01-31 18:12:00,72.0,64.0,30.06,NNE,30,4.0,11.0,75,0.00,,,0.00,,2013-01-31 23:12:00,
2013-01-31 18:22:00,72.0,64.0,30.07,North,5,4.0,12.0,76,0.00,,,0.00,,2013-01-31 23:22:00,
2013-01-31 18:32:00,72.0,65.0,30.08,NNE,27,7.0,13.0,78,0.00,,,0.00,,2013-01-31 23:32:00,
2013-01-31 18:42:00,72.0,65.0,30.08,NNE,27,7.0,13.0,78,0.00,,,0.00,,2013-01-31 23:42:00,
2013-01-31 18:52:00,70.0,63.0,30.09,NNE,17,12.0,18.0,78,0.00,,,0.00,,2013-01-31 23:52:00,
2013-01-31 19:01:00,70.0,64.0,30.09,North,11,7.0,19.0,80,0.00,,,0.00,,2013-02-01 00:01:00,
2013-01-31 19:11:00,70.0,64.0,30.09,North,11,7.0,19.0,80,0.00,,,0.00,,2013-02-01 00:11:00,
2013-01-31 19:22:00,69.0,62.0,30.10,NNE,19,11.0,19.0,79,0.00,,,0.00,,2013-02-01 00:22:00,
2013-01-31 19:32:00,68.0,61.0,30.11,NNE,18,14.0,20.0,79,0.00,,,0.00,,2013-02-01 00:32:00,
2013-01-31 19:42:00,68.0,61.0,30.11,NNE,18,14.0,20.0,79,0.00,,,0.00,,2013-02-01 00:42:00,
2013-01-31 19:52:00,68.0,61.0,30.11,NE,35,13.0,20.0,78,0.00,,,0.00,,2013-02-01 00:52:00,
2013-01-31 20:01:00,68.0,61.0,30.12,NE,53,12.0,17.0,79,0.00,,,0.00,,2013-02-01 01:01:00,
2013-01-31 20:11:00,68.0,62.0,30.12,NE,45,10.0,20.0,80,0.00,,,0.00,,2013-02-01 01:11:00,
2013-01-31 20:21:00,68.0,62.0,30.12,NE,45,10.0,20.0,80,0.00,,,0.00,,2013-02-01 01:21:00,
2013-01-31 20:32:00,67.0,61.0,30.13,NNE,27,11.0,18.0,81,0.00,,,0.00,,2013-02-01 01:32:00,
2013-01-31 20:42:00,67.0,61.0,30.13,NNE,27,11.0,18.0,81,0.00,,,0.00,,2013-02-01 01:42:00,
2013-01-31 20:52:00,67.0,60.0,30.13,ENE,72,8.0,16.0,78,0.00,,,0.00,,2013-02-01 01:52:00,
2013-01-31 21:02:00,67.0,60.0,30.13,NE,54,6.0,15.0,79,0.00,,,0.00,,2013-02-01 02:02:00,
2013-01-31 21:11:00,67.0,60.0,30.13,NE,54,6.0,15.0,79,0.00,,,0.00,,2013-02-01 02:11:00,
2013-01-31 21:21:00,67.0,60.0,30.14,ENE,73,9.0,17.0,78,0.00,,,0.00,,2013-02-01 02:21:00,
2013-01-31 21:32:00,67.0,59.0,30.14,ENE,59,7.0,20.0,76,0.00,,,0.00,,2013-02-01 02:32:00,
2013-01-31 21:42:00,67.0,59.0,30.14,ENE,59,7.0,20.0,76,0.00,,,0.00,,2013-02-01 02:42:00,
2013-01-31 21:52:00,67.0,60.0,30.14,NE,42,8.0,18.0,77,0.00,,,0.00,,2013-02-01 02:52:00,
2013-01-31 22:02:00,67.0,60.0,30.14,NE,42,14.0,17.0,77,0.00,,,0.00,,2013-02-01 03:02:00,
2013-01-31 22:12:00,67.0,60.0,30.14,NE,42,14.0,17.0,77,0.00,,,0.00,,2013-02-01 03:12:00,
2013-01-31 22:21:00,67.0,60.0,30.14,ENE,59,13.0,17.0,77,0.00,,,0.00,,2013-02-01 03:21:00,
2013-01-31 22:33:00,67.0,59.0,30.15,NE,40,10.0,19.0,76,0.00,,,0.00,,2013-02-01 03:33:00,
2013-01-31 22:42:00,67.0,59.0,30.15,NE,40,10.0,19.0,76,0.00,,,0.00,,2013-02-01 03:42:00,
2013-01-31 22:52:00,67.0,58.0,30.15,NE,54,10.0,19.0,72,0.00,,,0.00,,2013-02-01 03:52:00,
2013-01-31 23:02:00,67.0,57.0,30.16,NE,36,12.0,19.0,71,0.00,,,0.00,,2013-02-01 04:02:00,
2013-01-31 23:11:00,67.0,54.0,30.15,ENE,64,17.0,22.0,64,0.00,,,0.00,,2013-02-01 04:11:00,
2013-01-31 23:21:00,67.0,54.0,30.15,ENE,64,17.0,22.0,64,0.00,,,0.00,,2013-02-01 04:21:00,
2013-01-31 23:32:00,68.0,56.0,30.15,NE,51,13.0,20.0,65,0.00,,,0.00,,2013-02-01 04:32:00,
2013-01-31 23:41:00,68.0,56.0,30.15,NE,51,13.0,20.0,65,0.00,,,0.00,,2013-02-01 04:41:00,
2013-01-31 23:52:00,67.0,54.0,30.14,ENE,71,15.0,23.0,63,0.00,,,0.00,,2013-02-01 04:52:00,